Location: Benllech
(53.3167°N, 4.2167°W)
Time: 12:48:16
(UTC+00:00)

Daily predictions for brighter satellites

Satellite Brightness Start Highest point End
(mag) Time Altitude Azimuth Time Altitude Azimuth Time Altitude Azimuth
Cosmos 1777 Rocket 4.2 17:22:18 10° SSW 17:27:34 80° WNW 17:32:55 10° NNE
Envisat 3.9 17:23:14 10° S 17:28:13 55° W 17:33:15 10° NNW
Cosmos 2344 4.2 17:19:44 10° NW 17:28:21 72° NE 17:40:12 10° ESE
H-2A R/B 2.6 17:25:43 10° NNE 17:29:54 40° E 17:33:57 10° S
NOSS 2-1 (D) 4.4 17:27:19 10° S 17:29:55 21° ESE 17:32:38 10° ENE
USA 229 DEB 3.9 17:23:08 10° NW 17:30:20 80° NE 17:37:59 10° SE
USA 229 3.9 17:23:15 10° NW 17:30:26 80° NE 17:38:06 10° SE
H-2A R/B 3.1 17:26:34 10° ESE 17:30:38 24° NE 17:34:48 10° N
Cosmos 1939 Rocket 3.2 17:28:38 10° SE 17:32:28 42° ENE 17:36:17 10° N
CZ-3B R/B 1.4 17:30:27 10° WNW 17:32:33 74° SSW 17:37:11 10° ESE
Helios 1A Rocket 4.5 17:30:28 10° E 17:33:08 17° NE 17:35:48 10° NNE
Cosmos 44 3.9 17:29:24 10° SSW 17:33:58 42° ESE 17:38:51 10° NE
SeaSat 1 2.5 17:29:25 10° NNE 17:34:23 89° NW 17:39:20 10° SW
Cosmos 158 Rocket 4.5 17:29:44 10° NNW 17:35:07 71° WSW 17:40:29 10° SSE
Cosmos 2112 Rocket 4.0 17:30:16 10° NNW 17:35:33 77° ENE 17:40:46 10° SSE
NOSS 3-4 (A) 4.4 17:30:42 10° W 17:36:24 37° NNW 17:42:41 10° NE
NOSS 3-4 (C) 4.4 17:30:48 10° W 17:36:30 37° NNW 17:42:46 10° NE
SJ 16-02 1.4 17:33:14 10° SSW 17:37:36 66° ESE 17:41:58 10° NNE
Feng Yun 1-1 Rocket 4.5 17:32:43 10° SE 17:38:02 50° ENE 17:43:30 10° N
FengYun 1-2 T 4.3 17:35:10 10° SSE 17:40:46 83° ENE 17:46:28 10° NNW
Aureole 3 Rocket 3.5 17:38:20 10° NNE 17:41:02 25° ENE 17:44:07 10° SE
YAOGAN 1 3.6 17:38:31 10° ESE 17:42:00 24° ENE 17:45:30 10° N
COSMOS 2406 3.3 17:36:18 10° NNW 17:42:03 60° NE 17:47:45 10° SE
Cosmos 2082 Rocket 2.8 17:36:57 10° NNW 17:42:16 37° NE 17:47:33 10° ESE
Cosmos 1844 Rocket 2.7 17:36:55 10° SSW 17:42:34 77° ESE 17:48:14 10° NE
Cosmos 1892 Rocket 3.7 17:38:31 10° SSW 17:42:52 82° WNW 17:47:14 10° N
H-2A R/B 3.0 17:39:40 10° S 17:43:51 67° WSW 17:48:12 10° NNW
Cosmos 1818 3.6 17:38:24 10° SW 17:43:51 86° SE 17:49:22 10° NE
NOSS 3-1 (A) 4.0 17:38:46 10° NW 17:45:57 84° NE 17:54:27 10° SE
Cosmos 1844 3.8 17:40:59 10° SSW 17:46:38 69° ESE 17:52:23 10° NE
X-37B 3.0 17:45:10 10° SW 17:47:27 18° S 17:49:44 10° SE
Cosmos 1703 3.8 17:45:28 10° SSE 17:49:01 36° E 17:52:37 10° NNE
Cosmos 1812 Rocket 3.7 17:45:54 10° N 17:50:11 50° ENE 17:54:25 10° SSE
ISS -3.4 17:47:23 10° WSW 17:50:44 61° S 17:53:50 12° E
IRS-1C Rocket 4.3 17:46:30 10° SE 17:51:30 47° ENE 17:56:32 10° N
Meteor 2-1 Rocket 4.3 17:46:23 10° NNW 17:51:58 85° W 17:57:28 10° S
ATLAS 2AS CENTAUR R/B 3.7 17:46:24 10° W 17:53:51 43° NNW 18:00:55 10° NE
Cosmos 2227 Rocket 4.3 17:52:23 10° NW 17:55:43 16° NNW 17:59:04 10° NNE
ATLAS 5 CENTAUR R/B 2.9 17:52:17 10° W 17:56:17 33° NNW 18:00:53 10° NE
Okean O Rocket 2.0 17:52:49 10° S 17:57:14 71° WSW 18:01:39 10° NNW
Iridium 4 Rocket 3.9 17:53:19 10° N 17:58:30 41° ENE 18:03:15 10° SSE
ERS-2 3.6 17:58:38 13° NE 18:00:38 18° E 18:03:14 10° SE
SKYMED 2 4.2 17:56:41 10° NNE 18:00:44 36° E 18:04:45 10° SSE
CZ-4 R/B 1.9 17:57:50 10° SE 18:01:30 35° ENE 18:05:07 10° N
CZ-4C R/B 3.5 18:00:45 10° WNW 18:06:07 35° N 18:11:47 13° NE
CSL-04 Rocket 4.4 18:01:24 10° ESE 18:06:12 33° ENE 18:11:04 10° N
ADEOS Rocket 4.3 18:01:53 10° N 18:07:09 35° WNW 18:12:07 10° WSW
Meteor 2-13 Rocket 4.4 18:01:06 10° S 18:07:14 83° E 18:13:27 10° NNE
Okean-O 3.0 18:04:52 10° SE 18:09:02 41° ENE 18:13:13 10° N
Aureole 2 Rocket 4.1 18:08:34 10° WSW 18:11:18 27° NW 18:14:04 10° N
USA 234 3.4 18:05:52 13° ENE 18:11:41 68° N 18:18:10 10° W
Cosmos 1340 2.8 18:08:50 10° S 18:12:27 49° E 18:16:06 10° NNE
Cosmos 2278 Rocket 3.0 18:08:11 10° SSE 18:13:05 31° ESE 18:17:12 14° NE
Cosmos 1346 Rocket 3.9 18:09:57 10° SE 18:13:08 24° E 18:15:11 16° NE
CZ-2C R/B 3.2 18:12:04 10° SSE 18:17:37 78° ENE 18:23:25 10° NNW
Cosmos 2297 Rocket 4.3 18:16:33 10° NW 18:19:18 13° N 18:22:03 10° NNE
CZ-4B R/B 4.5 18:14:51 10° S 18:20:14 47° W 18:25:44 10° NNW
Cosmos 405 2.8 18:16:56 10° N 18:20:30 76° ENE 18:24:00 10° SSE
Cosmos 1455 3.8 18:17:24 10° NNW 18:21:00 39° W 18:24:36 10° SSW
COSMOS 2455 3.6 18:15:42 10° WSW 18:21:34 51° NW 18:27:28 10° NE
NOSS 2-1 (E) 3.0 18:21:36 10° SSW 18:24:52 58° SE 18:26:46 24° ENE
TELKOM 3 4.5 18:25:49 10° WSW 18:27:44 26° S 18:28:34 20° SSE
Cosmos 1869 4.1 18:25:11 10° N 18:28:36 28° ENE 18:30:11 22° ESE
Cosmos 1627 Rocket 4.5 18:22:31 10° S 18:28:40 65° E 18:34:56 10° NNE
NOSS 2-2 (D) 4.4 18:24:23 10° NW 18:29:02 50° NNE 18:33:29 18° ESE
Cosmos 1626 Rocket 3.7 18:24:43 10° SSW 18:29:08 78° WNW 18:33:37 10° N
ARGOS 3.3 18:26:04 10° SE 18:31:11 48° ENE 18:36:23 10° N
PSLV R/B 4.5 18:28:24 12° NNE 18:32:04 37° E 18:35:59 10° SSE
CZ-4B R/B 1.2 18:32:30 10° NNE 18:35:51 85° ESE 18:39:05 10° SSW
Cosmos 1898 Rocket 3.4 18:30:42 10° SSW 18:35:57 85° ESE 18:41:13 10° NNE
Cosmos 372 Rocket 4.4 18:31:58 10° S 18:36:47 39° ESE 18:39:58 20° NE
CZ-2C R/B 3.6 18:33:46 17° NE 18:36:48 25° E 18:41:23 10° SE
Cosmos 2263 Rocket 4.1 18:32:30 10° W 18:36:54 22° NNW 18:41:18 10° NNE
Cosmos 1092 Rocket 3.9 18:31:22 10° S 18:37:33 87° E 18:43:44 10° N
Cosmos 494 Rocket 4.3 18:34:33 10° NNW 18:39:27 42° NE 18:42:29 21° ESE
Cosmos 1328 3.7 18:35:46 10° S 18:39:45 89° ESE 18:43:45 10° NNE
CZ-2D R/B 3.9 18:38:10 10° S 18:41:57 57° W 18:45:45 10° NNW
MOS 1 Rocket 2.9 18:39:21 10° NNE 18:43:39 75° ESE 18:47:59 10° S
Cosmos 1048 Rocket 4.0 18:39:29 10° NNW 18:44:35 59° ENE 18:49:37 10° SE
Cosmos-2242 2.9 18:40:49 10° N 18:45:09 90° ENE 18:49:28 10° S
Meteor 2-15 4.4 18:42:37 10° NNW 18:48:50 89° W 18:55:00 10° S
COSMO-SKYMED 1 2.6 18:44:34 10° NNE 18:48:57 84° WNW 18:53:17 10° SSW
Meteor 1-11 4.1 18:47:16 10° S 18:52:54 72° E 18:58:30 10° NNE
USA 290 3.6 18:50:29 10° NW 18:53:29 39° WSW 18:56:29 10° S
Cosmos 1758 Rocket 3.5 18:51:23 10° S 18:55:51 85° E 19:00:23 10° NNE
Cosmos 1937 Rocket 3.5 18:53:11 10° SSW 18:58:31 86° WNW 19:03:19 13° NNE
Cosmos 2098 Rocket 4.3 18:52:37 10° S 19:00:05 86° E 19:07:07 10° NNE
SL-08 RB Rocket 3.6 18:59:18 16° SE 19:02:46 58° ENE 19:07:11 10° N
Cosmos 2221 3.3 19:00:31 10° N 19:03:42 34° NE 19:03:42 34° NE
CSL-04 Debris 4.0 18:59:37 10° SSE 19:05:00 82° ENE 19:10:27 10° NNW
H-2A R/B 3.9 19:01:53 10° N 19:05:45 30° WNW 19:09:32 10° WSW
Cosmos 389 Rocket 2.7 19:03:01 10° N 19:05:55 52° NNE 19:05:55 52° NNE
Cosmos 1833 Rocket 3.7 19:01:13 10° NW 19:06:36 47° WSW 19:11:56 10° S
Helios 1A Rocket 3.0 19:03:38 10° SSE 19:07:47 79° WSW 19:11:57 10° NNW
H-2A R/B 2.3 19:04:32 10° S 19:09:36 70° WSW 19:14:53 10° NNW
SeaSat 1 4.3 19:07:28 10° NNE 19:11:25 25° NW 19:15:24 10° W
Cosmos 1689 Rocket 4.0 19:13:25 20° SSW 19:13:25 20° SSW 19:14:27 10° SSW
Cosmos 2298 Rocket 4.3 19:08:16 10° S 19:13:18 44° ESE 19:13:35 44° E
NOSS 2-1 (C) 3.5 19:10:47 10° WSW 19:14:04 52° NW 19:14:40 46° N
Cosmos 44 4.1 19:10:22 10° WSW 19:15:12 50° NW 19:17:57 26° NNE
Cosmos 2266 Rocket 4.1 19:09:53 10° SSE 19:15:47 48° E 19:21:37 10° NNE
SJ 16-02 3.6 19:13:09 10° W 19:16:36 22° NW 19:20:04 10° N
NOSS 2-2 (C) 4.2 19:12:13 10° NW 19:17:13 80° NE 19:20:07 34° SE
YAOGAN 1 3.4 19:13:38 10° S 19:17:51 52° W 19:22:06 10° NNW
NOSS 2-1 (D) 3.7 19:16:47 10° WSW 19:20:02 48° NNW 19:20:27 45° N
Cosmos 2026 Rocket 4.4 19:15:27 10° SSW 19:21:33 62° WNW 19:27:49 10° N
HJ-1C 3.8 19:20:23 32° S 19:21:42 61° WSW 19:25:03 10° NNW
X-37B 3.5 19:22:38 10° SW 19:23:18 10° SSW 19:23:54 10° SSW
In-Cosmos 22 Rocket 4.2 19:19:42 10° S 19:25:21 60° E 19:29:35 18° NNE
Cosmos 1553 Rocket 4.4 19:19:10 10° NNW 19:25:31 65° W 19:31:45 10° S
Cosmos 2082 Rocket 2.8 19:21:03 10° NW 19:26:41 58° WSW 19:32:15 10° SSE
Cosmos 1844 Rocket 4.3 19:22:06 10° W 19:27:03 30° NW 19:31:29 12° NNE
ISS -2.9 19:24:04 10° W 19:26:48 48° SW 19:26:48 48° SW
Cosmos 1825 Rocket 3.9 19:23:21 10° SSW 19:27:44 66° WNW 19:32:10 10° N
NOSS 3-4 (A) 4.4 19:22:49 10° NW 19:28:51 39° NNE 19:30:38 34° NE
NOSS 3-4 (C) 4.4 19:22:56 10° NW 19:28:57 39° NNE 19:30:44 34° NE
Cosmos 1269 Rocket 4.2 19:24:04 10° NNW 19:29:03 50° NE 19:29:03 50° NE
ERS-2 3.0 19:33:12 33° NNW 19:34:25 47° WNW 19:37:55 10° SW
CZ-4 R/B 3.4 19:33:06 10° SSW 19:36:35 28° W 19:40:03 10° NW
MetOp-A 4.0 19:37:46 56° SE 19:38:50 74° ENE 19:44:12 10° NNW
Meteor 2-21 4.3 19:35:17 10° S 19:41:18 67° E 19:47:25 10° NNE
ATLAS 5 CENTAUR R/B 3.3 19:38:07 10° NW 19:42:12 27° N 19:42:29 27° NNE
Cosmos 2227 Rocket 4.2 19:39:27 10° NNW 19:42:19 14° N 19:42:53 14° NNE
Cosmos 2315 Rocket 3.8 19:38:01 10° N 19:44:18 74° ENE 19:46:33 41° SSE
Cosmos 883 Rocket 4.3 19:38:51 10° N 19:45:07 87° ENE 19:50:11 16° S
CSL-04 Rocket 4.3 19:40:57 10° S 19:46:18 55° W 19:51:46 10° NNW
ATLAS 2AS CENTAUR R/B 3.5 19:39:17 10° WNW 19:46:35 41° NNE 19:48:21 36° NE
Cosmos 1346 Rocket 4.1 19:45:36 10° SW 19:49:18 39° WNW 19:50:46 28° NNW
Meteor 2-14 Rocket 4.3 19:43:16 10° S 19:49:19 72° E 19:55:25 10° NNE
Ariane Rocket 3.3 19:51:36 54° N 19:51:36 54° N 19:55:39 10° NNW
IRS-1A Rocket 4.2 19:51:16 67° SE 19:51:58 77° ENE 19:57:50 10° NNW
S3M 4.4 19:46:01 10° NNW 19:52:02 59° W 19:58:01 10° S
Cosmos 1953 Rocket 4.2 19:50:03 10° SSW 19:54:18 53° WNW 19:55:15 44° NNW
USA 234 3.2 19:53:12 58° ENE 19:54:28 72° NNE 20:01:01 10° WNW
CZ-4C R/B 3.3 19:50:07 10° NW 19:56:11 42° NNE 19:56:58 41° NE
Cosmos 2278 Rocket 2.6 19:51:16 10° SW 19:56:53 60° NW 19:59:05 36° N
Cosmos 1655 Rocket 4.0 19:52:45 10° SSW 19:58:59 78° WNW 20:05:15 10° N
Cosmos 44 Rocket 4.2 19:58:54 10° SW 20:02:05 40° SSW 20:02:05 40° SSW
USA 281 3.7 20:04:50 45° NNE 20:04:50 45° NNE 20:10:21 10° NNW
Cosmos 2297 Rocket 4.2 20:02:24 10° NNW 20:05:07 16° N 20:05:07 16° N
COSMOS 2455 4.5 20:04:01 10° WNW 20:08:53 24° NNW 20:10:41 21° N
CZ-2C R/B 3.0 20:15:10 35° N 20:17:33 67° WNW 20:23:07 10° SSW
Cosmos 2263 Rocket 4.5 20:20:31 10° NNW 20:23:05 13° N 20:24:02 13° N
ATLAS 5 CENTAUR R/B 4.5 21:22:57 10° NW 21:24:01 16° NW 21:24:01 16° NW
ATLAS 2AS CENTAUR R/B 3.9 21:31:03 10° NW 21:35:47 40° NW 21:35:47 40° NW
Cosmos 2278 Rocket 4.5 21:37:59 10° WNW 21:40:58 19° NW 21:40:58 19° NW
CZ-4C R/B 4.0 21:38:42 10° NW 21:42:09 34° NW 21:42:09 34° NW
